Simultaneous Nadir Overpasses (SNOs) Predictions

Prediction of SNOs between GOES-16 and TERRA Satellite Orbit:

Table of predicted SNOs for the next 14.0 days since TLE Epoch: 3/3/2018
Index Date Time (GOES-16) GOES-16 Lat,Lon TERRA Lat,Lon Distance(km) Time Diff (sec)
1 03/03/2018 03:48:12 -0.01, -75.18 -0.79, -78.97 430.15 80
2 03/05/2018 03:36:02 -0.01, -75.19 -0.17, -76.01 93.02 80
3 03/07/2018 03:21:11 -0.01, -75.20 0.46, -73.05 244.71 80
4 03/07/2018 15:42:26 0.01, -75.24 0.62, -78.21 338.07 80
5 03/09/2018 15:32:55 0.00, -75.26 -0.01, -75.26 1.57 80
6 03/11/2018 15:20:44 0.00, -75.28 -0.66, -72.30 339.10 80
7 03/12/2018 03:42:08 0.00, -75.26 -0.45, -77.49 253.37 80
8 03/14/2018 03:27:16 -0.00, -75.29 0.15, -74.53 86.24 80
9 03/14/2018 15:48:32 0.00, -75.32 0.94, -79.69 496.38 80
10 03/16/2018 03:15:05 0.00, -75.32 0.81, -71.58 426.43 80
11 03/16/2018 15:36:21 0.00, -75.36 0.27, -76.74 156.00 80




NCC Satellite Simultaneous Nadir Overpasses (SNOs) Prediction Service
